STARLINK-6112, 57136

Orbit data source: Space-Track

STARLINK-6112, 57136 is a payload satellite owned by SpaceX/Seattle (US) in LEO that was launched on Fri, 23 Jun 2023 UTC via an FALCON 9 launch vehicle from the Air Force Eastern Test Range (AFETR). Payload-class satellites include a variety of spacecraft equipped with specific instruments for various scientific and technological missions. These include communications satellites like Starlink; space stations such as the ISS; scientific satellites like the Hubble; Earth observation satellites from companies like Planet Labs, Umbra, and HawkEye 360; GPS; miniature CubeSats for education and research; and military/defense satellites.

Loading next visibility...
Identifier
57136, 2023-090AM
Orbit
LEO
Last TLE update
11 hours ago
Origin
Manufacturer
SpaceX/Seattle
Mission
Operational Commercial Communications
Bus & Motor
STARLINK, Unknown motor
Mass
305 kg wet, ~290 kg dry
Launch date (UTC)
2023-06-23 (2 years ago)
Launch vehicle
FALCON 9
Launch site
Air Force Eastern Test Range (AFETR)
Object type
Payload
Rocket body
Debris
Shape & HBR
Box + 1 Pan, 9 m
Radar Cross Section
11.087 m², Large (>1 m²)

Expand to show TLE details & history

TLE from 11 hours ago
0 STARLINK-6112
1 57136U 23090AM  25187.95702158 -.00000030  00000-0  12814-4 0  9990
2 57136  43.0029 157.3189 0001117 288.7825  71.2896 15.02534981113428
Epoch: 2025-07-06T22:58Z
TLE epoch observation values (Epoch: 2025-07-06T22:58:06.664Z)
Latitude
-0.00003°
Longitude
-112.38216°
Altitude
558.612 km
Speed
7.584 km/s
True Right ascension
10h 29m 16s
True Declination
0° 00' 00"
Sunlit
Object was in daylight at epoch
Visualization orbit readout
Latitude
-42.47424°
Longitude
167.66943°
Altitude
571.411 km
Speed
7.576 km/s
Apparent Right ascension
07h 25m 21s
Apparent Declination
-46° 43' 53"
Sunlit
Object is in daylight
Visualization observer readout
Local Sidereal Time
21:48:42
Azimuth
116.711° SE
Elevation
-63.305°
Doppler factor
1
Orbital elements
Apogee altitude
561.781 km
Perigee altitude
560.231 km
Semi-major axis
6,939.143 km
Eccentricity
0.00011
Inclination
43.0029°
RAAN
157.3189°
Arg. of periapsis
288.7825°
True anomaly
Unknown
Mean anomaly
71.2896°
Eccentric anomaly
Unknown
Mean motion
3.75478 °/min
Orbital period
95.88 mins
BSTAR
0.000012814
Loading maneuver chart data...
Loading SW <> Apogee altitude chart data...
Loading historical data...
Loading historical data...
Loading historical data...
Loading historical data...
Loading historical data...
Loading historical data...
Loading historical data...

STARLINK-6112 Visibility forecast

Observer location: undefined°, undefined°

Span
Click to sort rows by Start time (UTC) header in descending order
Start Az.
Max El. time (UTC)
Max El. Az.
Max El.
End time (UTC)
End Az.
7 mins2025-07-08 00:40:42.616Z206.523° SW2025-07-08 00:43:42.616Z159.782° S25.732°2025-07-08 00:47:42.616Z86.898° E
7 mins2025-07-08 02:21:42.616Z256.037° W2025-07-08 02:24:42.616Z14.494° NNE44.662°2025-07-08 02:28:42.616Z71.573° E
6 mins2025-07-08 04:02:42.616Z288.093° WNW2025-07-08 04:05:42.616Z13.78° NNE39.194°2025-07-08 04:08:42.616Z76.74° E
6 mins2025-07-08 05:43:42.616Z287.425° WNW2025-07-08 05:46:42.616Z121.774° SE44.067°2025-07-08 05:49:42.616Z111.123° ESE
5 mins2025-07-08 07:24:42.616Z254.416° W2025-07-08 07:26:42.616Z215.476° SW22.081°2025-07-08 07:29:42.616Z164.695° S
|